Back to catalog

QIANFAN-230

AliveCommunicationsPO
NORAD 69859·PAYLOAD·🇨🇳 China

Launched Jul 5, 2026 from Wenchang Space Launch Site

Loading…

Next Passes (next 24 hours)

TLE

FreshSource: Space-Track

Epoch: Sep 14, 2026, 20:50 UTC

1 69859U 26155M   26257.86872059 -.01804708  00000-0 -29744+1 0  9999
2 69859  89.0077  54.3077 0036321  29.8355 330.4857 13.51092928  9956

Track QIANFAN-230 in real time with AllMySat

Download on the App Store